Location: Ambrosina
(19.9365°S, 43.9833°W)
Time: 01:21:46
(UTC+00:00)

Cosmos 1486 Rocket - Pass Details

Date: 11 May 2021
Orbit: 759 x 783 km, 74.1° (Epoch: 20 June)

Event Time Altitude Azimuth Distance (km) Brightness Sun altitude
Rises 21:11:37 0° 193° (SSW) 3,256 7.2 -10.4°
Reaches altitude 10° 21:14:01 10° 191° (S) 2,327 6.5 -11.0°
Maximum altitude 21:19:18 80° 104° (ESE) 792 4.0 -12.2°
Drops below altitude 10° 21:24:35 10° 17° (NNE) 2,319 6.5 -13.4°
Sets 21:26:57 0° 15° (NNE) 3,243 7.2 -13.9°
